Havre, MT

9:08 AM MDT on April 23, 2017 (GMT -0600)
Havre City-County

Weather History for KHVR - July, 2013

Change the Weather History Date:

Thursday, July 11, 2013

  Actual Average Record
Temperature  
Mean Temperature 74 °F 68 °F  
Max Temperature 89 °F 84 °F 105 °F (1886)
Min Temperature 59 °F 53 °F 40 °F (1987)
Degree Days  
Heating Degree Days 0 1  
Month to date heating degree days 1 18  
Since 1 June heating degree days 114 151  
Since 1 July heating degree days 1 18  
Cooling Degree Days 9 5  
Month to date cooling degree days 65 41  
Year to date cooling degree days 115 100  
Since 1 June cooling degree days 108 89  
Growing Degree Days 24 (Base 50)    
Moisture  
Dew Point 52 °F    
Average Humidity 56    
Maximum Humidity 90    
Minimum Humidity 22    
Precipitation  
Precipitation 0.00 in 0.07 in 0.89 in (1891)
Month to date precipitation 1.29 0.73  
Year to date precipitation 12.50 6.65  
Snow  
Snow 0.00 in 0.00 in 0.00 in (1999)
Month to date snowfall 0.0 0.0  
Since 1 June snowfall 0.0 0.0  
Since 1 July snowfall 0.0 0.0  
Snow Depth 0.00 in    
Sea Level Pressure  
Sea Level Pressure 29.65 in    
Wind  
Wind Speed 8 mph (West)    
Max Wind Speed 23 mph    
Max Gust Speed 30 mph    
Visibility 10 miles    
Events      
T = Trace of Precipitation, MM = Missing Value Source: NWS Daily Summary

Daily Weather History Graph

Daily Weather History Graph

Search for Another Location

Airport or City:

Trip Planner

Search our weather history database for the weather conditions in past years. The results will help you decide how hot, cold, wet, or windy it might be!

Date:

Astronomy

Jul. 11, 2013 Rise Set
Actual Time 5:29 AM MDT 9:19 PM MDT
Civil Twilight 4:48 AM MDT 9:59 PM MDT
Nautical Twilight 3:53 AM MDT 10:55 PM MDT
Astronomical Twilight 2:27 AM MDT 12:18 AM MDT
Moon 9:11 AM MDT (7/11) 10:38 PM MDT (7/11)
Length of Visible Light 17h 11m
Length of Day
15h 50m
Waxing Crescent, 11% of the Moon is Illuminated
Jul 11
Waxing Crescent
Jul 15
First Quarter
Jul 22
Full
Jul 29
Last Quarter
Aug 6
New

Hourly Weather History & Observations

Time (MDT) Temp. Heat Index Dew Point Humidity Pressure Visibility Wind Dir Wind Speed Gust Speed Precip Events Conditions
12:53 AM 72.0 °F - 53.1 °F 51% 29.68 in 10.0 mi NE 10.4 mph - N/A   Clear
1:53 AM 70.0 °F - 54.0 °F 57% 29.66 in 10.0 mi NE 5.8 mph - N/A   Clear
2:53 AM 68.0 °F - 55.9 °F 65% 29.63 in 10.0 mi NE 10.4 mph - N/A   Clear
3:53 AM 64.9 °F - 55.9 °F 73% 29.62 in 10.0 mi NNE 4.6 mph - N/A   Clear
4:53 AM 63.0 °F - 55.9 °F 78% 29.62 in 10.0 mi WNW 3.5 mph - N/A   Clear
5:53 AM 60.1 °F - 57.0 °F 90% 29.66 in 10.0 mi WSW 5.8 mph - N/A   Clear
6:53 AM 63.0 °F - 59.0 °F 87% 29.67 in 10.0 mi WSW 4.6 mph - N/A   Clear
7:53 AM 69.1 °F - 57.0 °F 65% 29.66 in 10.0 mi SW 6.9 mph - N/A   Clear
8:53 AM 73.0 °F - 57.9 °F 59% 29.67 in 10.0 mi SW 17.3 mph 23.0 mph N/A   Clear
9:53 AM 78.1 °F - 59.0 °F 52% 29.67 in 10.0 mi SW 16.1 mph - N/A   Clear
10:53 AM 84.0 °F 82.5 °F 53.1 °F 34% 29.67 in 10.0 mi West 10.4 mph - N/A   Clear
11:53 AM 87.1 °F - 44.1 °F 22% 29.65 in 10.0 mi WNW 18.4 mph 24.2 mph N/A   Clear
12:53 PM 87.1 °F - 46.9 °F 25% 29.65 in 10.0 mi WNW 10.4 mph - N/A   Clear
1:53 PM 87.1 °F - 46.9 °F 25% 29.64 in 10.0 mi West 13.8 mph - N/A   Clear
2:53 PM 89.1 °F - 48.9 °F 25% 29.63 in 10.0 mi SW 4.6 mph - N/A   Clear
3:53 PM 87.1 °F 84.9 °F 53.1 °F 31% 29.63 in 10.0 mi South 8.1 mph - N/A   Clear
4:53 PM 89.1 °F - 51.1 °F 27% 29.61 in 10.0 mi West 9.2 mph - N/A   Partly Cloudy
5:53 PM 87.1 °F - 51.1 °F 29% 29.61 in 10.0 mi WSW 11.5 mph - N/A   Clear
6:31 PM 84.2 °F - 46.4 °F 27% 29.67 in 10.0 mi WNW 17.3 mph - N/A   Clear
6:53 PM 82.9 °F - 44.1 °F 25% 29.62 in 10.0 mi NW 11.5 mph - N/A   Clear
7:53 PM 79.0 °F - 52.0 °F 39% 29.63 in 10.0 mi ENE 3.5 mph - N/A   Clear
8:53 PM 79.0 °F - 45.0 °F 30% 29.65 in 10.0 mi SSW 4.6 mph - N/A   Mostly Cloudy
9:53 PM 73.9 °F - 54.0 °F 50% 29.67 in 10.0 mi Calm Calm - N/A   Partly Cloudy
10:53 PM 72.0 °F - 45.0 °F 38% 29.68 in 10.0 mi WSW 6.9 mph - N/A   Partly Cloudy
11:53 PM 68.0 °F - 52.0 °F 56% 29.69 in 10.0 mi West 3.5 mph - N/A   Clear